When you browse on this site, cookies collect data to enhance your experience and personalize the content and advertising you see.
Visit our Privacy Policy to learn more. By continuing to use the site, you agree to this use of cookies and data.
  • en Suisse
  • Liste des pays
  • À 7 jours
  • Température de l'eau
  • Carte satellitaire
  • Carte météo
  • Widgets météo
  • user-avatar
    Se connecter

    Météo par heure à Pleskachivka

    Ce jour, 19 Avril, Vendredi

    Heure Température Précipitation Vent Pression Humidité
    00:00 +6°C° 0 mm 2 m/s 753 mmHg 52%
    01:00 +5°C° 0 mm 2 m/s 753 mmHg 53%
    02:00 +5°C° 0 mm 2 m/s 753 mmHg 54%
    03:00 +5°C° 0 mm 1 m/s 753 mmHg 55%
    04:00 +4°C° 0 mm 2 m/s 753 mmHg 56%
    05:00 +4°C° 0 mm 2 m/s 753 mmHg 57%
    06:00 +3°C° 0 mm 2 m/s 753 mmHg 58%
    07:00 +4°C° 0 mm 3 m/s 753 mmHg 53%
    08:00 +5°C° 0 mm 3 m/s 754 mmHg 48%
    09:00 +7°C° 0 mm 4 m/s 754 mmHg 43%
    10:00 +7°C° 0 mm 4 m/s 754 mmHg 41%
    11:00 +8°C° 0 mm 4 m/s 754 mmHg 38%
    12:00 +10°C° 0 mm 4 m/s 754 mmHg 35%
    13:00 +10°C° 0 mm 4 m/s 754 mmHg 34%
    14:00 +11°C° 0 mm 4 m/s 754 mmHg 34%
    15:00 +11°C° 0 mm 4 m/s 754 mmHg 34%
    16:00 +11°C° 0 mm 4 m/s 754 mmHg 35%
    17:00 +10°C° 0 mm 4 m/s 754 mmHg 37%
    18:00 +10°C° 0 mm 4 m/s 753 mmHg 39%
    19:00 +9°C° 0 mm 3 m/s 754 mmHg 43%
    20:00 +7°C° 0 mm 3 m/s 754 mmHg 48%
    21:00 +6°C° 0 mm 2 m/s 754 mmHg 52%
    22:00 +6°C° 0 mm 2 m/s 754 mmHg 52%
    23:00 +5°C° 0 mm 2 m/s 754 mmHg 53%

    Demain, 20 Avril, Samedi

    Heure Température Précipitation Vent Pression Humidité
    00:00 +5°C° 0 mm 2 m/s 755 mmHg 54%
    01:00 +5°C° 0 mm 2 m/s 755 mmHg 54%
    02:00 +5°C° 0 mm 1 m/s 755 mmHg 54%
    03:00 +5°C° 0 mm 1 m/s 755 mmHg 55%
    04:00 +5°C° 0 mm 1 m/s 755 mmHg 56%
    05:00 +4°C° 0 mm 1 m/s 754 mmHg 57%
    06:00 +4°C° 0 mm 1 m/s 754 mmHg 58%
    07:00 +5°C° 0 mm 2 m/s 754 mmHg 52%
    08:00 +7°C° 0 mm 2 m/s 755 mmHg 47%
    09:00 +9°C° 0 mm 2 m/s 755 mmHg 41%
    10:00 +9°C° 0 mm 2 m/s 754 mmHg 38%
    11:00 +10°C° 0 mm 2 m/s 754 mmHg 35%
    12:00 +12°C° 0 mm 2 m/s 754 mmHg 32%
    13:00 +12°C° 0 mm 2 m/s 754 mmHg 32%
    14:00 +13°C° 0 mm 2 m/s 754 mmHg 32%
    15:00 +13°C° 0 mm 2 m/s 753 mmHg 33%
    16:00 +13°C° 0 mm 2 m/s 753 mmHg 35%
    17:00 +13°C° 0 mm 2 m/s 753 mmHg 37%
    18:00 +12°C° 0 mm 2 m/s 753 mmHg 40%
    19:00 +10°C° 0 mm 2 m/s 753 mmHg 44%
    20:00 +9°C° 0 mm 2 m/s 753 mmHg 47%
    21:00 +7°C° 0 mm 2 m/s 754 mmHg 51%
    22:00 +8°C° 0 mm 1 m/s 754 mmHg 52%
    23:00 +8°C° 0 mm 1 m/s 754 mmHg 53%

    Après-demain, 21 Avril, Dimanche

    Heure Température Précipitation Vent Pression Humidité
    00:00 +7°C° 0 mm 1 m/s 754 mmHg 53%
    01:00 +7°C° 0 mm 1 m/s 753 mmHg 54%
    02:00 +7°C° 0 mm 1 m/s 753 mmHg 54%
    03:00 +7°C° 0 mm 1 m/s 753 mmHg 54%
    04:00 +7°C° 0 mm 1 m/s 753 mmHg 55%
    05:00 +7°C° 0 mm 1 m/s 754 mmHg 56%
    06:00 +7°C° 0 mm 1 m/s 754 mmHg 57%
    07:00 +9°C° 0 mm 1 m/s 754 mmHg 53%
    08:00 +9°C° 0 mm 2 m/s 754 mmHg 49%
    09:00 +12°C° 0 mm 2 m/s 754 mmHg 44%
    10:00 +12°C° 0 mm 2 m/s 754 mmHg 42%
    11:00 +13°C° 0 mm 2 m/s 754 mmHg 39%
    12:00 +12°C° 0 mm 3 m/s 754 mmHg 36%
    13:00 +12°C° 0 mm 3 m/s 754 mmHg 36%
    14:00 +13°C° 0 mm 3 m/s 754 mmHg 36%
    15:00 +13°C° 0 mm 3 m/s 754 mmHg 36%
    16:00 +13°C° 0 mm 3 m/s 754 mmHg 38%
    17:00 +12°C° 0 mm 3 m/s 754 mmHg 40%
    18:00 +12°C° 0 mm 3 m/s 754 mmHg 42%
    19:00 +11°C° 0 mm 3 m/s 754 mmHg 46%
    20:00 +9°C° 0 mm 2 m/s 755 mmHg 50%
    21:00 +8°C° 0 mm 2 m/s 755 mmHg 54%
    22:00 +8°C° 0 mm 2 m/s 755 mmHg 55%
    23:00 +7°C° 0 mm 2 m/s 755 mmHg 56%

    22 Avril, Lundi

    Heure Température Précipitation Vent Pression Humidité
    00:00 +7°C° 0 mm 2 m/s 755 mmHg 57%
    01:00 +7°C° 0 mm 2 m/s 755 mmHg 58%
    02:00 +6°C° 0 mm 2 m/s 755 mmHg 59%
    03:00 +6°C° 0 mm 2 m/s 755 mmHg 61%
    04:00 +6°C° 0 mm 2 m/s 756 mmHg 62%
    05:00 +6°C° 0 mm 2 m/s 756 mmHg 64%
    06:00 +6°C° 0 mm 2 m/s 756 mmHg 65%
    07:00 +8°C° 0 mm 2 m/s 756 mmHg 60%
    08:00 +10°C° 0 mm 3 m/s 756 mmHg 54%
    09:00 +11°C° 0 mm 3 m/s 757 mmHg 49%
    10:00 +12°C° 0 mm 3 m/s 756 mmHg 45%
    11:00 +12°C° 0 mm 3 m/s 756 mmHg 42%
    12:00 +13°C° 0 mm 3 m/s 756 mmHg 38%
    13:00 +13°C° 0 mm 3 m/s 756 mmHg 39%
    14:00 +13°C° 0 mm 3 m/s 756 mmHg 39%
    15:00 +13°C° 0 mm 3 m/s 756 mmHg 40%
    16:00 +13°C° 0 mm 3 m/s 756 mmHg 42%
    17:00 +14°C° 0 mm 2 m/s 756 mmHg 43%
    18:00 +13°C° 0 mm 2 m/s 756 mmHg 45%
    19:00 +12°C° 0 mm 2 m/s 756 mmHg 49%
    20:00 +10°C° 0 mm 2 m/s 756 mmHg 52%
    21:00 +10°C° 0 mm 1 m/s 756 mmHg 56%
    22:00 +10°C° 0 mm 1 m/s 757 mmHg 56%
    23:00 +10°C° 0 mm 1 m/s 757 mmHg 57%

    23 Avril, Mardi

    Heure Température Précipitation Vent Pression Humidité
    00:00 +10°C° 0 mm 1 m/s 757 mmHg 57%
    01:00 +9°C° 0 mm 1 m/s 757 mmHg 59%
    02:00 +9°C° 0 mm 1 m/s 757 mmHg 61%
    03:00 +8°C° 0 mm 1 m/s 757 mmHg 63%
    04:00 +8°C° 0 mm 1 m/s 757 mmHg 63%
    05:00 +8°C° 0 mm 1 m/s 757 mmHg 63%
    06:00 +8°C° 0 mm 1 m/s 758 mmHg 64%
    07:00 +10°C° 0 mm 1 m/s 758 mmHg 59%
    08:00 +10°C° 0 mm 2 m/s 758 mmHg 55%
    09:00 +13°C° 0 mm 2 m/s 758 mmHg 50%
    10:00 +13°C° 0 mm 2 m/s 758 mmHg 46%
    11:00 +14°C° 0 mm 2 m/s 758 mmHg 42%
    12:00 +15°C° 0 mm 2 m/s 758 mmHg 39%
    13:00 +15°C° 0 mm 2 m/s 758 mmHg 39%
    14:00 +15°C° 0 mm 2 m/s 758 mmHg 40%
    15:00 +15°C° 0 mm 2 m/s 758 mmHg 41%
    16:00 +15°C° 0 mm 2 m/s 758 mmHg 44%
    17:00 +15°C° 0 mm 2 m/s 758 mmHg 46%
    18:00 +15°C° 0 mm 2 m/s 757 mmHg 49%
    19:00 +13°C° 0 mm 1 m/s 758 mmHg 52%
    20:00 +12°C° 0 mm 1 m/s 758 mmHg 56%
    21:00 +10°C° 0 mm 1 m/s 758 mmHg 60%
    22:00 +10°C° 0 mm 1 m/s 758 mmHg 61%
    23:00 +10°C° 0 mm 1 m/s 758 mmHg 62%

    24 Avril, Mercredi

    Heure Température Précipitation Vent Pression Humidité
    00:00 +9°C° 0 mm 1 m/s 758 mmHg 63%
    01:00 +9°C° 0 mm 1 m/s 758 mmHg 64%
    02:00 +8°C° 0 mm 2 m/s 758 mmHg 65%
    03:00 +7°C° 0 mm 2 m/s 758 mmHg 66%
    04:00 +7°C° 0 mm 2 m/s 758 mmHg 67%
    05:00 +7°C° 0 mm 2 m/s 758 mmHg 69%
    06:00 +7°C° 0 mm 2 m/s 758 mmHg 70%
    07:00 +9°C° 0 mm 3 m/s 758 mmHg 66%
    08:00 +11°C° 0 mm 3 m/s 758 mmHg 62%
    09:00 +13°C° 0 mm 3 m/s 758 mmHg 59%
    10:00 +14°C° 0 mm 3 m/s 758 mmHg 54%
    11:00 +17°C° 0 mm 3 m/s 758 mmHg 50%
    12:00 +18°C° 0 mm 3 m/s 758 mmHg 45%
    13:00 +19°C° 0 mm 3 m/s 757 mmHg 45%
    14:00 +19°C° 0 mm 3 m/s 757 mmHg 45%
    15:00 +20°C° 0 mm 3 m/s 757 mmHg 44%
    16:00 +19°C° 0 mm 3 m/s 757 mmHg 47%
    17:00 +19°C° 0 mm 2 m/s 757 mmHg 49%
    18:00 +19°C° 0 mm 2 m/s 756 mmHg 51%
    19:00 +17°C° 0 mm 2 m/s 756 mmHg 56%
    20:00 +16°C° 0 mm 2 m/s 757 mmHg 60%
    21:00 +14°C° 0 mm 2 m/s 757 mmHg 65%
    22:00 +14°C° 0 mm 2 m/s 757 mmHg 67%
    23:00 +13°C° 0 mm 2 m/s 757 mmHg 69%
    Voir plus